FW2602 Weather Reports


Display with metric or nautical units.
time (UTC)temp
F
wind
direction
speed
MPH
gust
MPH
rain 1hr
in
rain 24hr
in
rain mn
in
humidity
%
barometer
mb
20260505204522 74 304 6.0 23.0 0.00 0.02 0.02 37 1003.4
20260505204010 74 296 7.0 22.0 0.00 0.02 0.02 37 1003.2
20260505203519 74 293 6.0 17.0 0.00 0.02 0.02 37 1003.2
20260505203002 74 288 6.0 21.0 0.00 0.02 0.02 37 1003.1
20260505202513 74 266 11.0 23.0 0.00 0.02 0.02 36 1003.0
20260505202021 74 274 15.0 23.0 0.00 0.02 0.02 37 1003.0
20260505201514 74 285 5.0 14.0 0.00 0.02 0.02 44 1002.9
20260505201016 75 292 8.0 14.0 0.00 0.02 0.02 42 1002.8
20260505200528 75 290 6.0 13.0 0.00 0.02 0.02 42 1002.6
20260505200012 75 301 8.0 15.0 0.00 0.02 0.02 42 1002.5
20260505195523 74 295 9.0 18.0 0.00 0.02 0.02 43 1002.5
20260505195006 74 283 10.0 18.0 0.00 0.02 0.02 45 1002.6
20260505194517 74 298 9.0 15.0 0.00 0.02 0.02 45 1002.6
20260505194011 73 285 7.0 20.0 0.00 0.02 0.02 45 1002.8
20260505193524 72 302 11.0 20.0 0.00 0.02 0.02 51 1003.0
20260505193009 71 290 9.0 21.0 0.00 0.02 0.02 50 1003.2
20260505192523 71 259 10.0 20.0 0.00 0.02 0.02 48 1003.4
20260505192004 71 300 11.0 24.0 0.00 0.02 0.02 49 1003.5
20260505191516 72 295 16.0 34.0 0.00 0.02 0.02 46 1003.5
20260505191020 73 280 20.0 34.0 0.00 0.02 0.02 40 1003.5
20260505190510 74 316 13.0 27.0 0.00 0.02 0.02 40 1003.5
20260505190017 74 295 13.0 29.0 0.00 0.02 0.02 40 1003.2
20260505185526 74 314 14.0 29.0 0.00 0.02 0.02 39 1003.2
20260505185012 75 298 13.0 26.0 0.00 0.02 0.02 39 1003.3
20260505184523 75 271 10.0 21.0 0.00 0.02 0.02 40 1003.3
20260505184012 75 222 12.0 24.0 0.00 0.02 0.02 39 1003.3
20260505183522 76 236 11.0 29.0 0.00 0.02 0.02 40 1003.2
20260505183010 75 293 16.0 32.0 0.00 0.02 0.02 38 1003.3
20260505182519 75 280 15.0 32.0 0.00 0.02 0.02 40 1003.2
20260505182005 75 307 10.0 20.0 0.00 0.02 0.02 40 1003.3
20260505181515 74 280 11.0 24.0 0.00 0.02 0.02 41 1003.3
20260505181020 74 221 12.0 24.0 0.00 0.02 0.02 41 1003.6
20260505180510 74 308 8.0 25.0 0.00 0.02 0.02 40 1003.3
20260505180036 74 291 9.0 25.0 0.00 0.02 0.02 40 1003.5
20260505175525 75 317 11.0 24.0 0.00 0.02 0.02 40 1003.5
20260505175011 75 249 13.0 33.0 0.00 0.02 0.02 40 1003.5
20260505174519 75 278 18.0 33.0 0.00 0.02 0.02 39 1003.4
20260505174004 75 256 13.0 25.0 0.00 0.02 0.02 39 1003.6
20260505173517 74 294 8.0 29.0 0.00 0.02 0.02 40 1003.6
20260505173017 75 297 17.0 29.0 0.00 0.02 0.02 39 1003.6
20260505172515 75 288 11.0 26.0 0.00 0.02 0.02 41 1003.9
20260505172019 74 310 16.0 26.0 0.00 0.02 0.02 43 1003.8
20260505171507 74 287 11.0 26.0 0.00 0.02 0.02 41 1003.9
20260505171016 74 293 12.0 24.0 0.00 0.02 0.02 41 1004.0
20260505170524 75 297 14.0 27.0 0.00 0.02 0.02 39 1004.2
20260505170013 74 248 13.0 27.0 0.00 0.02 0.02 40 1004.2
20260505165524 75 261 10.0 24.0 0.00 0.02 0.02 42 1004.4
20260505165014 74 277 12.0 25.0 0.00 0.02 0.02 43 1004.3
20260505164525 74 285 15.0 26.0 0.00 0.02 0.02 42 1004.5
20260505164008 74 298 14.0 28.0 0.00 0.02 0.02 44 1004.4
20260505163520 74 300 13.0 28.0 0.00 0.02 0.02 43 1004.4
20260505163004 74 290 18.0 28.0 0.00 0.02 0.02 40 1004.4
20260505162515 74 190 12.0 28.0 0.00 0.02 0.02 40 1004.6
20260505162020 74 217 15.0 28.0 0.00 0.02 0.02 40 1004.5
20260505161511 74 293 14.0 29.0 0.00 0.02 0.02 42 1004.5
20260505161018 73 277 14.0 34.0 0.00 0.02 0.02 42 1004.3
20260505160510 73 288 19.0 34.0 0.00 0.02 0.02 41 1004.6
20260505153010 72 280 15.0 31.0 0.00 0.02 0.02 47 1004.9
20260505152520 72 302 15.0 28.0 0.00 0.02 0.02 49 1004.9
20260505152018 72 300 13.0 30.0 0.00 0.02 0.02 49 1005.1
20260505151510 71 290 16.0 28.0 0.00 0.02 0.02 49 1005.1
20260505151015 71 276 19.0 28.0 0.00 0.02 0.02 49 1005.1
20260505150527 71 307 10.0 27.0 0.00 0.02 0.02 50 1004.9
20260505140528 66 293 8.0 20.0 0.00 0.02 0.02 57 1005.5
20260505125018 65 291 11.0 20.0 0.00 0.02 0.02 60 1005.9
20260505124513 65 295 12.0 22.0 0.00 0.02 0.02 59 1005.8
20260505124014 65 274 14.0 23.0 0.00 0.02 0.02 59 1005.9
20260505123521 64 274 11.0 23.0 0.00 0.02 0.02 59 1006.0
20260505123022 64 293 9.0 18.0 0.00 0.02 0.02 60 1006.0
20260505122520 64 239 11.0 21.0 0.00 0.02 0.02 60 1006.0
20260505122018 64 298 13.0 24.0 0.00 0.02 0.02 60 1006.0
20260505121510 64 253 6.0 23.0 0.00 0.02 0.02 60 1006.1
20260505121015 63 305 8.0 18.0 0.00 0.02 0.02 61 1006.1
20260505120517 63 255 8.0 18.0 0.00 0.02 0.02 61 1006.0
20260505120023 63 295 11.0 22.0 0.00 0.02 0.02 62 1006.0
20260505115515 63 278 8.0 22.0 0.00 0.02 0.02 62 1006.1
20260505115013 62 300 8.0 20.0 0.00 0.02 0.02 63 1006.1
20260505114513 62 298 9.0 19.0 0.00 0.02 0.02 63 1005.8
20260505114012 62 305 6.0 20.0 0.00 0.02 0.02 63 1006.1
20260505113512 61 294 8.0 20.0 0.00 0.02 0.02 63 1006.0
20260505113010 61 171 8.0 15.0 0.00 0.02 0.02 64 1006.1
20260505112513 61 278 8.0 17.0 0.00 0.02 0.02 64 1006.0
20260505112011 61 266 9.0 17.0 0.00 0.02 0.02 64 1005.9
20260505111517 61 302 5.0 16.0 0.00 0.02 0.02 64 1005.9
20260505111011 60 307 6.0 16.0 0.00 0.02 0.02 65 1005.8
20260505110507 60 250 6.0 15.0 0.00 0.02 0.02 65 1005.7
20260505102006 59 228 5.0 13.0 0.00 0.02 0.02 68 1005.4
20260505101518 58 294 5.0 13.0 0.01 0.02 0.02 69 1005.4
20260505101005 58 330 3.0 9.0 0.01 0.02 0.02 69 1005.5
20260505100505 58 312 2.0 9.0 0.01 0.02 0.02 69 1005.4
20260505100019 58 283 1.0 8.0 0.02 0.02 0.02 70 1005.5
20260505095503 57 281 2.0 6.0 0.02 0.02 0.02 72 1005.4
20260505095004 57 132 0.0 3.0 0.02 0.02 0.02 73 1005.4
20260505094504 57 46 0.0 3.0 0.02 0.02 0.02 72 1005.3
20260505094001 58 109 0.0 6.0 0.02 0.02 0.02 70 1005.5
20260505093603 59 263 0.0 7.0 0.02 0.02 0.02 68 1005.6
20260505093105 59 318 2.0 10.0 0.02 0.02 0.02 66 1005.9
20260505092601 59 293 4.0 10.0 0.02 0.02 0.02 67 1006.0
20260505092059 59 301 4.0 16.0 0.02 0.02 0.02 66 1006.0
20260505091557 59 298 8.0 16.0 0.01 0.01 0.01 65 1005.9
20260505091055 60 266 6.0 14.0 0.01 0.01 0.01 63 1006.0
20260505090554 61 284 7.0 15.0 0.01 0.01 0.01 60 1005.8
20260505090053 61 63 6.0 15.0 0.00 0.00 0.00 57 1005.3
20260505085552 61 287 6.0 15.0 0.00 0.00 0.00 58 1005.1
20260505085052 61 285 6.0 15.0 0.00 0.00 0.00 57 1005.2
20260505084551 61 295 6.0 13.0 0.00 0.00 0.00 57 1005.3
20260505084051 60 340 6.0 12.0 0.00 0.00 0.00 57 1005.2
20260505083549 60 316 7.0 13.0 0.00 0.00 0.00 57 1005.4
20260505083049 61 302 4.0 13.0 0.00 0.00 0.00 57 1005.2
20260505082548 61 280 7.0 16.0 0.00 0.00 0.00 57 1005.4
20260505082048 61 283 8.0 16.0 0.00 0.00 0.00 56 1005.4
20260505081600 61 294 6.0 17.0 0.00 0.00 0.00 56 1005.6
20260505081047 61 315 7.0 13.0 0.00 0.00 0.00 56 1005.4
20260505080549 61 266 6.0 14.0 0.00 0.00 0.00 56 1005.4
20260505080056 61 297 7.0 14.0 0.00 0.00 0.00 56 1005.5
20260505075545 61 259 7.0 13.0 0.00 0.00 0.00 56 1005.7
20260505075045 61 291 5.0 14.0 0.00 0.00 0.00 55 1005.7
20260505074543 61 291 8.0 14.0 0.00 0.00 0.00 55 1005.5
20260505074044 61 289 4.0 16.0 0.00 0.00 0.00 55 1005.7
20260505073541 61 302 6.0 17.0 0.00 0.00 0.00 55 1005.6
20260505073041 61 285 5.0 17.0 0.00 0.00 0.00 55 1005.4
20260505072540 61 300 4.0 17.0 0.00 0.00 0.00 54 1005.4
20260505072038 61 330 4.0 15.0 0.00 0.00 0.00 54 1005.5
20260505071548 60 322 2.0 12.0 0.00 0.00 0.00 54 1005.5
20260505071038 61 257 4.0 9.0 0.00 0.00 0.00 54 1005.5
20260505070537 61 297 3.0 14.0 0.00 0.00 0.00 54 1005.5
20260505070036 61 242 4.0 14.0 0.00 0.00 0.00 54 1005.5
20260505065535 61 285 6.0 12.0 0.00 0.00 0.00 53 1005.7
20260505065034 61 289 3.0 19.0 0.00 0.00 0.00 53 1005.7
20260505064533 61 322 5.0 19.0 0.00 0.00 0.00 53 1005.7
20260505064036 61 284 5.0 11.0 0.00 0.00 0.00 53 1005.8
20260505063533 61 274 5.0 17.0 0.00 0.00 0.00 53 1005.8
20260505063038 61 256 5.0 17.0 0.00 0.00 0.00 53 1005.7
20260505062532 61 167 6.0 14.0 0.00 0.00 0.00 53 1005.8
20260505062029 61 264 4.0 15.0 0.00 0.00 0.00 52 1005.7
20260505061534 61 322 6.0 15.0 0.00 0.00 0.00 52 1005.7
20260505061028 61 323 5.0 11.0 0.00 0.00 0.00 52 1005.8
20260505060528 61 319 6.0 19.0 0.00 0.00 0.00 52 1005.7
20260505060027 61 349 4.0 19.0 0.00 0.00 0.00 51 1005.6
20260505055526 61 240 4.0 14.0 0.00 0.00 0.00 51 1005.6
20260505055026 61 217 4.0 13.0 0.00 0.00 0.00 52 1005.9
20260505054526 61 323 3.0 14.0 0.00 0.00 0.00 51 1005.8
20260505054026 61 245 4.0 13.0 0.00 0.00 0.00 51 1005.9
20260505053523 61 326 5.0 13.0 0.00 0.00 0.00 52 1005.8
20260505053035 61 263 5.0 17.0 0.00 0.00 0.00 51 1005.7
20260505052526 61 291 6.0 17.0 0.00 0.00 0.00 51 1005.9
20260505052026 61 304 4.0 11.0 0.00 0.00 0.00 52 1006.0
20260505051536 61 277 3.0 9.0 0.00 0.00 0.00 52 1006.1
20260505051024 61 166 3.0 10.0 0.00 0.00 0.00 52 1006.0
20260505050520 61 269 3.0 10.0 0.00 0.00 0.00 52 1006.0
20260505041521 60 137 3.0 8.0 0.00 0.00 0.00 51 1006.0
20260505041020 61 326 1.0 11.0 0.00 0.00 0.00 51 1006.0
20260505040515 61 340 3.0 8.0 0.00 0.00 0.00 51 1006.0
20260505040014 61 298 3.0 8.0 0.00 0.00 0.00 50 1005.9
20260505035517 61 49 3.0 11.0 0.00 0.00 0.00 50 1005.9
20260505035012 61 291 4.0 11.0 0.00 0.00 0.00 50 1005.9
20260505034512 61 111 3.0 11.0 0.00 0.00 0.00 50 1005.9
20260505034015 61 308 4.0 11.0 0.00 0.00 0.00 49 1005.9
20260505033513 61 42 3.0 12.0 0.00 0.00 0.00 49 1006.0
20260505033013 61 304 5.0 12.0 0.00 0.00 0.00 49 1006.1
20260505032512 61 297 4.0 12.0 0.00 0.00 0.00 49 1006.1
20260505032014 61 290 5.0 12.0 0.00 0.00 0.00 48 1006.2
20260505031512 61 353 4.0 11.0 0.00 0.00 0.00 48 1006.2
20260505031018 61 309 4.0 12.0 0.00 0.00 0.00 48 1006.1
20260505030513 61 162 3.0 12.0 0.00 0.00 0.00 47 1006.1
20260505030012 61 318 2.0 9.0 0.00 0.00 0.00 47 1006.1
20260505025611 62 339 2.0 11.0 0.00 0.00 0.00 47 1006.1
20260505025011 62 249 3.0 11.0 0.00 0.00 0.00 47 1006.1
20260505024510 62 68 3.0 9.0 0.00 0.00 0.00 46 1006.1
20260505024009 62 289 3.0 9.0 0.00 0.00 0.00 46 1006.2
20260505023510 62 311 3.0 10.0 0.00 0.00 0.00 45 1006.3
20260505023014 62 73 3.0 10.0 0.00 0.00 0.00 46 1006.3
20260505022510 62 306 4.0 9.0 0.00 0.00 0.00 46 1006.3
20260505022008 62 284 3.0 9.0 0.00 0.00 0.00 45 1006.4
20260505021508 62 308 1.0 8.0 0.00 0.00 0.00 45 1006.3
20260505021012 62 289 2.0 8.0 0.00 0.00 0.00 45 1006.4
20260505020509 62 277 2.0 9.0 0.00 0.00 0.00 45 1006.5
20260505020008 62 166 2.0 9.0 0.00 0.00 0.00 45 1006.5
20260505015508 62 292 1.0 7.0 0.00 0.00 0.00 45 1006.5
20260505015007 62 309 2.0 8.0 0.00 0.00 0.00 45 1006.5
20260505014506 62 302 3.0 8.0 0.00 0.00 0.00 45 1006.5
20260505014006 62 273 1.0 7.0 0.00 0.00 0.00 45 1006.6
20260505013507 62 305 2.0 8.0 0.00 0.00 0.00 45 1006.5
20260505013007 62 248 3.0 8.0 0.00 0.00 0.00 44 1006.5
20260505012508 62 296 1.0 7.0 0.00 0.00 0.00 45 1006.6
20260505012007 62 264 2.0 9.0 0.00 0.00 0.00 44 1006.6
20260505011506 62 301 1.0 6.0 0.00 0.00 0.00 45 1006.6
20260505011008 63 306 2.0 6.0 0.00 0.00 0.00 44 1006.6
20260505010506 63 283 1.0 6.0 0.00 0.00 0.00 44 1006.5
20260505010015 63 259 2.0 6.0 0.00 0.00 0.00 44 1006.4
20260505005506 63 325 1.0 7.0 0.00 0.00 0.00 44 1006.3
20260505005006 63 235 1.0 12.0 0.00 0.00 0.00 44 1006.2
20260505004506 63 293 3.0 12.0 0.00 0.00 0.00 44 1006.2
20260505004009 63 256 2.0 7.0 0.00 0.00 0.00 44 1006.1
20260505003514 63 298 3.0 7.0 0.00 0.00 0.00 43 1006.2
20260505003018 63 335 2.0 8.0 0.00 0.00 0.00 44 1006.1
20260505002509 63 315 0.0 8.0 0.00 0.00 0.00 44 1006.2
20260505002010 63 296 1.0 8.0 0.00 0.00 0.00 43 1006.1
20260505001523 63 115 2.0 9.0 0.00 0.00 0.00 43 1006.0
20260505001011 64 300 1.0 9.0 0.00 0.00 0.00 42 1006.1
20260505000518 64 39 1.0 6.0 0.00 0.00 0.00 42 1006.0
20260505000001 64 30 2.0 6.0 0.00 0.00 0.00 41 1006.0
20260504235515 64 33 1.0 8.0 0.00 0.00 0.00 41 1006.0
20260504235018 65 8 0.0 8.0 0.00 0.00 0.00 40 1005.9
20260504234511 65 143 0.0 6.0 0.00 0.00 0.00 40 1005.9
20260504234016 66 246 1.0 6.0 0.00 0.00 0.00 41 1005.9
20260504233509 66 53 1.0 6.0 0.00 0.00 0.00 41 1005.8
20260504233015 66 295 3.0 8.0 0.00 0.00 0.00 39 1005.8
20260504232508 66 221 2.0 8.0 0.00 0.00 0.00 40 1005.7
20260504232016 66 305 2.0 7.0 0.00 0.00 0.00 40 1005.7
20260504231508 67 266 5.0 8.0 0.00 0.00 0.00 40 1005.7
20260504231013 67 288 5.0 10.0 0.00 0.00 0.00 39 1005.6
20260504230525 67 316 4.0 10.0 0.00 0.00 0.00 39 1005.6
20260504230013 67 274 5.0 11.0 0.00 0.00 0.00 38 1005.5
20260504225525 67 253 3.0 22.0 0.00 0.00 0.00 39 1005.5
20260504225008 67 288 9.0 22.0 0.00 0.00 0.00 38 1005.5
20260504224522 68 274 3.0 11.0 0.00 0.00 0.00 40 1005.5
20260504224006 68 294 6.0 11.0 0.00 0.00 0.00 39 1005.5
20260504223516 67 268 5.0 12.0 0.00 0.00 0.00 38 1005.6
20260504223016 67 295 3.0 11.0 0.00 0.00 0.00 39 1005.6
20260504222507 68 300 4.0 13.0 0.00 0.00 0.00 39 1005.5
20260504222015 68 290 5.0 13.0 0.00 0.00 0.00 38 1005.4
20260504221539 68 294 5.0 13.0 0.00 0.00 0.00 40 1005.5
20260504221012 68 278 6.0 11.0 0.00 0.00 0.00 39 1005.4
20260504220526 68 297 5.0 13.0 0.00 0.00 0.00 38 1005.4
20260504220010 68 280 6.0 13.0 0.00 0.00 0.00 40 1005.4
20260504215522 68 274 8.0 15.0 0.00 0.00 0.00 38 1005.6
20260504215011 68 243 8.0 15.0 0.00 0.00 0.00 37 1005.5
20260504214521 68 281 8.0 18.0 0.00 0.00 0.00 38 1005.4
20260504214012 68 285 9.0 18.0 0.00 0.00 0.00 37 1005.5
20260504213524 68 294 8.0 18.0 0.00 0.00 0.00 40 1005.6
20260504213012 67 315 10.0 18.0 0.00 0.00 0.00 37 1005.6
20260504212523 67 287 8.0 16.0 0.00 0.00 0.00 39 1005.7
20260504212010 67 280 6.0 16.0 0.00 0.00 0.00 39 1005.8
20260504211525 67 283 9.0 16.0 0.00 0.00 0.00 40 1005.7
20260504211011 67 312 6.0 17.0 0.00 0.00 0.00 41 1005.7
20260504210524 68 277 7.0 18.0 0.00 0.00 0.00 41 1005.8
20260504210012 68 304 8.0 17.0 0.00 0.00 0.00 39 1005.8
20260504205524 67 300 9.0 15.0 0.00 0.00 0.00 40 1005.8
20260504205009 67 300 8.0 16.0 0.00 0.00 0.00 43 1005.8